RH
15 16 16 15 14 14 15 18 21 25 40 40 41 40 41 43 39 36 31 28 24 20 18 16 16 16 17 18 17 14 13 13 14 16 18 33 42 59
30 27 23 20 18 17 17 18 19 19 31 38 44 44 46 48 47 39 30 23 21 22 23 21 20 20 19 19 19 19 18 18 21 49 90 94 97 98
25 22 19 18 18 18 18 19 20 22 25 36 48 53 52 49 43 29 24 22 22 22 23 24 23 24 26 32 43 44 38 24 26 58 91 96 95 99
20 21 21 21 21 21 21 22 24 25 27 30 32 35 34 33 30 27 28 27 25 26 27 26 26 28 40 88 93 94 93 76 79 88 72 72 93 99
29 27 26 25 26 26 26 27 29 30 32 32 33 34 33 36 36 38 37 35 36 35 35 34 34 38 49 81 92 97 73 56 42 43 48 52 56 70
35 32 30 29 29 29 30 32 33 35 37 38 40 39 38 41 42 40 40 50 48 54 49 45 44 52 59 60 62 59 55 52 48 45 67 94 95 98
42 37 33 32 34 35 36 43 45 46 53 57 58 58 50 54 60 62 56 53 44 46 51 61 65 63 63 62 61 62 62 58 52 44 57 94 95 95
43 36 35 35 37 40 70 97 98 100 99 95 80 88 83 94 93 90 79 72 61 41 46 44 50 56 58 58 57 54 50 45 42 57 96 97 100 100
52 48 45 41 42 42 46 54 79 96 100 100 98 99 98 87 90 82 76 70 58 56 77 84 70 71 59 61 57 54 61 67 84 97 96 98 100 100
49 48 46 42 42 45 47 50 52 60 70 86 97 90 86 74 72 66 66 65 70 81 86 86 70 64 58 52 47 44 46 52 62 89 96 96 96 99
40 40 41 40 39 46 49 47 47 49 50 65 80 95 90 85 82 92 93 99 97 91 74 74 60 56 49 43 37 35 37 41 45 64 95 95 95 100
39 38 41 44 39 62 86 67 68 50 58 64 69 74 73 77 88 91 90 88 78 82 68 70 62 50 58 38 42 43 49 49 50 49 65 92 88 78
44 40 42 49 55 83 99 97 90 79 74 79 72 70 72 71 69 68 78 86 89 91 64 56 58 52 62 76 43 38 40 38 38 38 39 38 39 42
85 76 73 78 100 100 97 96 96 93 94 94 91 89 84 83 81 82 82 83 84 74 52 56 67 60 58 59 60 42 40 40 39 37 38 39 44 50
96 95 99 97 100 100 99 95 96 96 92 98 94 84 88 88 96 89 83 81 68 59 57 60 68 68 71 70 67 55 55 42 46 45 44 46 51 55
52 56 65 83 99 97 96 94 98 96 97 97 97 96 94 93 84 82 74 63 65 57 60 65 72 79 79 76 81 76 64 67 46 48 52 53 52 50
83 75 65 59 62 74 76 73 77 80 87 91 91 87 91 96 95 88 85 68 67 62 56 57 64 77 82 83 78 74 71 65 58 52 55 58 54 50
97 99 96 94 91 86 89 86 93 98 94 85 88 95 95 96 100 98 80 69 66 63 63 62 69 79 80 71 73 69 72 72 61 60 68 72 58 51
94 91 97 96 100 100 95 93 87 82 84 95 97 97 92 99 100 78 71 68 59 59 65 74 79 86 90 84 72 79 82 70 74 68 68 68 65 55
97 93 88 88 93 95 92 90 92 91 88 78 82 87 100 95 81 73 67 59 59 60 68 73 72 74 85 88 95 85 79 76 73 72 70 68 67 62
81 84 84 81 80 85 92 98 93 94 94 97 96 98 98 91 78 69 66 65 79 99 96 84 77 90 97 100 97 80 66 70 80 84 80 83 74 66
81 80 78 80 81 92 99 99 96 97 99 99 94 92 90 87 81 76 71 66 70 87 87 84 82 86 92 95 93 87 81 69 69 74 77 88 96 96
83 84 84 84 82 80 88 97 99 94 90 89 86 88 92 91 87 79 70 83 95 95 93 90 86 90 90 92 94 94 88 80 70 67 64 61 62 64
Wind_Speed
5 5 5 5 5 6 7 9 10 9 11 11 10 11 9 8 8 7 7 7 8 9 11 11 12 13 12 11 11 11 12 13 13 12 12 12 13 13
5 5 5 5 6 6 7 8 9 8 8 11 13 11 11 12 12 13 13 14 14 14 13 13 12 13 13 14 15 14 14 13 14 12 11 11 12 12
6 6 6 7 7 7 7 8 8 8 9 9 11 13 14 16 17 17 17 15 14 14 14 14 14 14 14 14 14 15 16 17 17 15 13 13 13 13
6 6 6 6 7 7 8 8 9 9 9 10 12 14 15 16 16 15 14 14 14 13 13 14 14 14 12 10 12 12 13 15 15 15 18 18 15 15
5 6 7 8 8 8 9 10 10 10 11 11 13 13 14 14 14 13 12 11 11 12 13 13 14 14 14 13 12 14 17 17 18 18 19 19 19 19
8 8 9 9 10 10 11 11 11 11 12 13 14 14 14 13 13 13 11 11 12 12 13 14 14 15 15 15 17 18 19 18 18 18 16 16 16 16
11 11 11 11 11 11 11 10 10 10 11 11 13 14 13 11 11 13 14 14 13 14 14 13 14 16 16 16 18 18 19 20 21 21 20 19 20 20
12 12 13 13 13 13 12 12 13 14 14 14 13 13 13 15 16 16 15 15 17 13 13 14 16 17 17 18 20 22 23 23 22 20 18 16 17 19
15 15 15 15 15 16 16 17 16 17 16 14 16 16 17 15 16 16 18 19 17 12 17 21 18 19 16 16 18 20 20 18 19 17 19 19 21 22
19 18 18 18 17 19 20 20 19 19 19 23 25 25 25 22 19 17 15 15 16 17 14 21 18 23 23 24 23 22 22 21 21 21 22 22 25 24
21 21 21 21 20 21 22 22 22 22 20 20 20 20 19 18 16 17 20 19 18 22 23 26 25 26 28 29 27 26 25 23 22 21 21 22 22 26
23 23 23 23 23 21 21 21 21 20 17 16 16 18 18 19 21 23 24 25 25 24 21 24 27 28 31 31 25 26 27 27 28 28 27 27 29 33
24 24 24 21 21 21 20 22 26 24 23 23 22 20 20 20 21 20 21 22 24 26 23 26 30 29 29 31 34 31 32 31 30 31 31 31 32 31
23 22 21 20 20 20 21 22 22 22 25 27 26 28 24 20 20 18 20 22 23 27 25 25 29 28 30 33 35 32 31 30 30 30 29 28 27 26
25 26 23 22 22 23 20 22 23 23 24 28 28 25 22 17 18 20 21 23 26 26 26 25 26 26 27 30 33 33 33 33 31 28 28 29 30 29
21 21 24 27 25 24 23 21 23 25 26 28 25 25 21 20 21 20 21 22 25 25 23 23 24 25 28 29 29 33 33 34 32 31 30 31 30 30
19 19 18 18 19 21 24 26 29 29 30 29 29 28 26 22 23 22 23 24 27 28 28 26 23 23 25 27 32 33 34 33 31 29 29 31 30 30
22 24 26 25 26 26 24 21 23 23 23 21 23 24 23 26 26 25 26 27 29 29 29 27 25 25 27 30 30 30 27 28 26 26 26 29 34 31
24 25 24 21 24 26 26 25 25 24 21 23 20 22 23 21 23 25 27 28 29 29 29 26 26 26 28 34 33 26 27 27 28 29 29 30 34 35
27 28 28 29 29 24 25 25 23 22 23 25 26 26 25 24 25 27 27 27 28 29 30 28 28 28 30 32 33 33 26 28 29 31 31 30 33 34
28 28 27 27 29 27 25 22 22 24 25 22 21 23 24 25 26 27 27 28 27 27 31 33 31 28 27 28 35 38 32 28 30 32 34 34 36 37
28 29 29 27 26 25 25 26 26 24 23 24 24 25 25 26 27 27 29 30 30 30 32 32 28 27 27 29 34 36 34 31 30 32 33 33 34 39
26 24 24 24 25 26 27 26 26 27 27 26 27 27 27 27 27 29 30 29 30 31 30 30 28 27 29 31 34 36 37 35 34 34 34 31 33 36
Wind_Direction
200 206 210 215 216 217 217 218 215 210 208 215 226 237 247 263 268 277 279 275 273 268 264 263 270 277 280 277 271 268 271 275 277 281 280 277 277 278
221 227 232 234 235 232 230 230 229 228 219 225 231 242 248 259 272 284 285 286 283 276 272 272 271 271 275 279 284 284 279 276 280 288 299 297 295 296
243 242 243 243 243 243 244 244 242 236 233 232 237 246 256 267 277 286 288 286 283 278 273 271 271 272 275 280 284 285 285 285 285 287 295 292 291 290
229 235 241 248 252 255 256 256 255 252 248 245 249 257 267 275 282 283 284 285 282 274 269 267 267 268 270 276 280 293 284 279 283 288 286 286 290 288
246 251 253 255 257 258 260 261 263 265 267 269 272 272 275 282 285 290 292 285 281 276 274 273 269 266 261 258 267 274 284 287 286 284 284 285 286 286
267 269 269 267 264 262 262 262 263 265 268 274 279 283 285 290 292 289 276 277 279 281 280 279 273 269 270 274 271 271 281 284 285 288 286 289 288 290
275 276 273 269 267 266 265 267 268 270 273 277 283 289 289 291 287 287 288 288 283 287 284 278 270 265 268 274 275 277 279 282 285 287 285 284 282 283
275 274 271 269 271 269 261 264 275 277 280 281 284 284 283 283 283 282 294 295 304 298 295 279 279 275 276 278 280 282 283 285 284 284 289 290 279 271
271 270 271 273 272 268 265 261 254 247 260 279 275 272 271 279 287 287 290 294 294 293 301 298 289 290 293 286 290 290 289 284 281 278 275 271 276 280
272 274 275 274 273 272 270 267 265 260 254 253 261 269 275 280 281 287 289 285 288 295 295 300 298 297 293 291 290 290 286 283 281 275 277 280 278 279
275 276 278 276 274 271 272 272 270 266 264 264 265 268 275 281 282 287 284 286 291 293 291 296 299 300 298 295 294 291 287 282 278 277 277 280 276 278
276 277 276 277 275 275 276 277 277 275 275 270 264 264 262 255 253 255 266 276 282 286 288 292 296 298 300 300 300 298 294 289 287 284 281 279 279 281
278 277 277 280 278 272 267 264 269 273 269 271 272 265 259 257 259 263 266 269 271 274 286 289 290 291 287 290 294 296 296 295 292 289 285 284 284 283
287 286 285 283 277 271 268 266 265 263 265 271 271 267 261 259 260 262 264 264 266 279 286 284 284 288 289 290 290 298 297 297 297 297 296 296 292 287
262 267 278 287 279 270 263 262 262 258 256 261 268 273 272 268 258 254 259 268 274 278 281 282 283 286 283 284 288 291 295 296 297 300 301 297 295 292
279 275 269 263 265 265 270 266 258 256 259 263 266 268 275 267 263 263 271 278 280 281 279 281 283 283 283 283 285 286 288 287 298 298 300 297 293 290
292 283 278 271 264 270 271 265 262 264 262 261 261 269 269 264 262 266 275 282 283 286 285 285 287 286 282 282 282 284 286 291 292 293 292 292 293 293
285 284 281 280 281 280 279 275 266 262 268 260 251 262 263 257 262 268 278 284 286 287 287 289 292 293 289 284 282 288 291 292 295 292 289 288 292 295
277 275 282 281 277 272 272 271 271 270 268 263 261 260 261 254 256 270 279 285 286 287 289 289 292 293 291 289 298 291 291 293 292 289 292 291 291 292
276 279 277 272 277 276 273 272 271 269 268 265 259 258 253 258 267 274 278 282 285 287 287 285 288 291 291 294 296 291 287 289 291 293 292 291 289 291
278 279 278 275 271 270 269 267 265 260 260 259 256 250 255 262 268 274 279 283 286 285 285 288 295 296 291 290 285 289 296 296 294 293 294 293 293 294
283 280 279 276 275 267 264 260 260 260 256 255 259 262 264 267 271 276 280 284 284 285 287 290 292 288 284 281 283 288 292 293 291 291 288 284 280 280
289 287 283 278 273 269 262 262 262 263 266 269 268 268 269 270 273 276 279 281 284 285 286 289 291 290 289 289 290 292 295 297 298 296 291 293 293 293